Allentown, PA

9:02 PM EST on December 13, 2019 (GMT -0500)
Allentown

Weather History for KXLL - May, 2019

Change the Weather History Date:

Tuesday, May 7, 2019

  Actual Average (KABE) Record (KABE)
Temperature  
Mean Temperature 64 °F -  
Max Temperature 75 °F 69 °F 94 °F (1939)
Min Temperature 53 °F 44 °F 32 °F (1970)
Degree Days  
Heating Degree Days 1    
Growing Degree Days 14 (Base 50)    
Moisture  
Dew Point 56 °F    
Average Humidity 83    
Maximum Humidity 100    
Minimum Humidity 53    
Precipitation  
Precipitation 0.70 in - - ()
Sea Level Pressure  
Sea Level Pressure 30.14 in    
Wind  
Wind Speed 4 mph (South)    
Max Wind Speed 16 mph    
Max Gust Speed 30 mph    
Visibility 9 miles    
Events Rain , Thunderstorm    
Averages and records for this station are not official NWS values.
T = Trace of Precipitation, MM = Missing Value Source: NWS Daily Summary

Daily Weather History Graph

Daily Weather History Graph

Search for Another Location

Airport or City:

Astronomy

May. 07, 2019 Rise Set
Actual Time 5:53 AM EDT 8:03 PM EDT
Civil Twilight 5:23 AM EDT 8:34 PM EDT
Nautical Twilight 4:46 AM EDT 9:11 PM EDT
Astronomical Twilight 4:06 AM EDT 9:51 PM EDT
Moon 7:57 AM EDT (5/7) 11:02 PM EDT (5/7)
Length of Visible Light 15h 10m
Length of Day
14h 09m
Waxing Crescent, 8% of the Moon is Illuminated
May 7
Waxing Crescent
May 11
First Quarter
May 18
Full
May 26
Last Quarter
Jun 3
New

Hourly Weather History & Observations

Time (EDT) Temp. Dew Point Humidity Pressure Visibility Wind Dir Wind Speed Gust Speed Precip Events Conditions
12:15 AM 59.0 °F 55.4 °F 88% 30.12 in 10.0 mi ESE 3.5 mph - N/A   Clear
12:35 AM 59.0 °F 53.6 °F 82% 30.13 in 10.0 mi Calm Calm - N/A   Scattered Clouds
12:55 AM 59.0 °F 53.6 °F 82% 30.13 in 10.0 mi SE 4.6 mph - N/A   Overcast
1:15 AM 59.0 °F 53.6 °F 82% 30.13 in 10.0 mi SSE 4.6 mph - N/A   Overcast
1:35 AM 57.2 °F 53.6 °F 88% 30.13 in 10.0 mi SSE 5.8 mph - N/A   Overcast
1:55 AM 57.2 °F 53.6 °F 88% 30.13 in 10.0 mi SSE 8.1 mph - N/A   Overcast
2:15 AM 57.2 °F 53.6 °F 88% 30.14 in 10.0 mi SSE 6.9 mph - N/A   Overcast
2:35 AM 57.2 °F 53.6 °F 88% 30.14 in 10.0 mi SSE 5.8 mph - N/A   Overcast
2:55 AM 55.4 °F 53.6 °F 94% 30.14 in 10.0 mi SSE 4.6 mph - N/A   Overcast
3:15 AM 55.4 °F 51.8 °F 88% 30.14 in 10.0 mi SSE 4.6 mph - N/A   Overcast
3:35 AM 55.4 °F 51.8 °F 88% 30.14 in 10.0 mi SSE 5.8 mph - N/A   Overcast
3:55 AM 55.4 °F 51.8 °F 88% 30.14 in 10.0 mi SSE 6.9 mph - N/A   Overcast
4:15 AM 55.4 °F 51.8 °F 88% 30.15 in 10.0 mi Calm Calm - N/A   Overcast
4:35 AM 55.4 °F 51.8 °F 88% 30.14 in 10.0 mi SSE 3.5 mph - N/A   Overcast
4:55 AM 55.4 °F 51.8 °F 88% 30.14 in 10.0 mi Calm Calm - N/A   Overcast
5:15 AM 55.4 °F 51.8 °F 88% 30.14 in 10.0 mi South 3.5 mph - N/A   Overcast
5:35 AM 53.6 °F 51.8 °F 94% 30.14 in 10.0 mi Calm Calm - N/A   Overcast
5:55 AM 53.6 °F 51.8 °F 94% 30.14 in 10.0 mi South 3.5 mph - N/A   Overcast
6:15 AM 53.6 °F 53.6 °F 100% 30.14 in 7.0 mi South 3.5 mph - N/A   Overcast
6:35 AM 53.6 °F 53.6 °F 100% 30.15 in 7.0 mi South 5.8 mph - N/A   Overcast
6:55 AM 53.6 °F 53.6 °F 100% 30.16 in 7.0 mi South 4.6 mph - N/A   Overcast
7:15 AM 53.6 °F 53.6 °F 100% 30.16 in 5.0 mi South 3.5 mph - N/A   Overcast
7:35 AM 53.6 °F 53.6 °F 100% 30.18 in 7.0 mi Calm Calm - N/A   Overcast
7:55 AM 53.6 °F 53.6 °F 100% 30.18 in 4.0 mi Calm Calm - N/A   Overcast
8:15 AM 55.4 °F 53.6 °F 94% 30.19 in 3.0 mi Calm Calm - N/A   Overcast
8:35 AM 55.4 °F 53.6 °F 94% 30.19 in 3.0 mi South 3.5 mph - N/A   Overcast
8:55 AM 55.4 °F 53.6 °F 94% 30.19 in 3.0 mi South 3.5 mph - N/A   Overcast
9:15 AM 55.4 °F 53.6 °F 94% 30.19 in 4.0 mi SSE 3.5 mph - N/A   Overcast
9:35 AM 55.4 °F 55.4 °F 100% 30.19 in 5.0 mi Calm Calm - N/A   Overcast
9:55 AM 57.2 °F 55.4 °F 94% 30.19 in 7.0 mi SSW 3.5 mph - N/A   Overcast
10:15 AM 59.0 °F 55.4 °F 88% 30.19 in 10.0 mi SW 5.8 mph - N/A   Overcast
10:35 AM 59.0 °F 55.4 °F 88% 30.19 in 10.0 mi South 4.6 mph - N/A   Overcast
10:55 AM 59.0 °F 55.4 °F 88% 30.20 in 10.0 mi South 3.5 mph - N/A   Overcast
11:15 AM 59.0 °F 55.4 °F 88% 30.19 in 10.0 mi SSW 3.5 mph - N/A   Overcast
11:35 AM 60.8 °F 55.4 °F 82% 30.19 in 10.0 mi South 4.6 mph - N/A   Overcast
11:55 AM 60.8 °F 55.4 °F 82% 30.19 in 10.0 mi Calm Calm - N/A   Overcast
12:15 PM 62.6 °F 55.4 °F 77% 30.19 in 10.0 mi Calm Calm - N/A   Overcast
12:35 PM 64.4 °F 57.2 °F 77% 30.19 in 10.0 mi SSE 4.6 mph - N/A   Overcast
12:55 PM 64.4 °F 55.4 °F 73% 30.18 in 10.0 mi Calm Calm - N/A   Scattered Clouds
1:15 PM 66.2 °F 57.2 °F 73% 30.17 in 10.0 mi Calm Calm - N/A   Clear
1:35 PM 68.0 °F 59.0 °F 73% 30.17 in 10.0 mi WSW 5.8 mph - N/A   Clear
1:55 PM 69.8 °F 57.2 °F 64% 30.16 in 10.0 mi SSW 6.9 mph - N/A   Clear
2:15 PM 69.8 °F 59.0 °F 68% 30.15 in 10.0 mi SSE 6.9 mph - N/A   Clear
2:35 PM 71.6 °F 59.0 °F 64% 30.14 in 10.0 mi South 6.9 mph - N/A   Clear
2:55 PM 73.4 °F 59.0 °F 61% 30.13 in 10.0 mi SSW 9.2 mph - N/A   Clear
3:15 PM 73.4 °F 59.0 °F 61% 30.12 in 10.0 mi South 9.2 mph - N/A   Clear
3:35 PM 73.4 °F 59.0 °F 61% 30.11 in 10.0 mi SSW 9.2 mph - N/A   Clear
3:55 PM 73.4 °F 59.0 °F 61% 30.11 in 10.0 mi SSW 10.4 mph - N/A   Clear
4:15 PM 75.2 °F 57.2 °F 53% 30.09 in 10.0 mi SSW 8.1 mph 16.1 mph N/A   Clear
4:35 PM 75.2 °F 59.0 °F 57% 30.09 in 10.0 mi SSW 8.1 mph - N/A   Clear
4:55 PM 75.2 °F 59.0 °F 57% 30.09 in 10.0 mi SSW 6.9 mph - N/A   Clear
5:15 PM 75.2 °F 57.2 °F 53% 30.09 in 10.0 mi SSW 9.2 mph 16.1 mph N/A   Clear
5:35 PM 75.2 °F 57.2 °F 53% 30.08 in 10.0 mi SSW 10.4 mph - N/A   Clear
5:55 PM 75.2 °F 59.0 °F 57% 30.08 in 10.0 mi South 5.8 mph - N/A   Clear
6:15 PM 75.2 °F 59.0 °F 57% 30.07 in 10.0 mi South 9.2 mph - N/A   Clear
6:35 PM 73.4 °F 59.0 °F 61% 30.07 in 10.0 mi SSW 12.7 mph - N/A   Clear
6:55 PM 73.4 °F 59.0 °F 61% 30.07 in 10.0 mi Calm Calm - N/A   Clear
7:15 PM 73.4 °F 59.0 °F 61% 30.07 in 10.0 mi South 8.1 mph - N/A   Clear
7:35 PM 71.6 °F 60.8 °F 69% 30.07 in 10.0 mi South 6.9 mph - N/A   Clear
7:55 PM 71.6 °F 60.8 °F 69% 30.07 in 10.0 mi South 5.8 mph - N/A   Scattered Clouds
8:15 PM 64.4 °F 59.0 °F 83% 30.13 in 7.0 mi NNE 16.1 mph 29.9 mph 0.02 in Rain , Thunderstorm Heavy Thunderstorms and Rain
8:35 PM 60.8 °F 60.8 °F 100% 30.14 in 2.0 mi NE 9.2 mph - 0.68 in Rain , Thunderstorm Heavy Thunderstorms and Rain
8:55 PM 60.8 °F 60.8 °F 100% 30.14 in 10.0 mi NE 6.9 mph - 0.69 in   Overcast
9:15 PM 60.8 °F 60.8 °F 100% 30.15 in 10.0 mi NNE 3.5 mph - 0.01 in   Overcast
9:35 PM 60.8 °F 60.8 °F 100% 30.15 in 10.0 mi Calm Calm - 0.01 in Rain , Thunderstorm Light Thunderstorms and Rain
9:55 PM 60.8 °F 60.8 °F 100% 30.15 in 10.0 mi Calm Calm - 0.01 in   Mostly Cloudy
10:15 PM 60.8 °F 60.8 °F 100% 30.17 in 10.0 mi WNW 3.5 mph - N/A   Overcast
10:35 PM 60.8 °F 60.8 °F 100% 30.16 in 10.0 mi Calm Calm - N/A   Mostly Cloudy
10:55 PM 60.8 °F 60.8 °F 100% 30.17 in 10.0 mi Calm Calm - N/A   Mostly Cloudy
11:15 PM 60.8 °F 60.8 °F 100% 30.16 in 10.0 mi Calm Calm - N/A   Overcast
11:35 PM 60.8 °F 60.8 °F 100% 30.16 in 10.0 mi Calm Calm - N/A   Overcast
11:55 PM 60.8 °F 60.8 °F 100% 30.16 in 10.0 mi North 4.6 mph - N/A   Overcast